Regional Weather Roundup
Issued by NWS

Home | Current Version | Previous Version | Graphics & Text | Print | Product List | Glossary On
Versions: 1 2 3 4 5 6 7 8 9 10 11 12 13 14 15 16 17 18 19 20 21 22 23 24 25 26 27 28 29 30 31 32 33 34 35 36 37 38 39 40 41 42 43 44 45 46 47 48 49 50
000
ASUS43 KLSX 021307
RWRMO

WEATHER SUMMARY FOR MISSOURI
NATIONAL WEATHER SERVICE SPRINGFIELD MO
800 AM CDT SUN AUG 02 2015

NOTE: "FAIR" INDICATES FEW OR NO CLOUDS BELOW 12,000 FEET WITH NO
       SIGNIFICANT WEATHER AND/OR OBSTRUCTIONS TO VISIBILITY.
       CURRENT SKY AND/OR WEATHER CONDITIONS ARE NOT AVAILABLE FOR
       CHILLICOTHE AND FARMINGTON.

MOZ001>031-035>038-043-044-053-054-021400-
...NORTHERN AND WESTERN MISSOURI...

CITY           SKY/WX    TMP DP  RH WIND       PRES   REMARKS
KANSAS CTY INT MOSUNNY   75  69  81 SW9       29.93R
KANSAS C DTWN  SUNNY     79  67  66 SW9       29.92R
LEE`S SUMMIT   SUNNY     75  66  73 SW8       29.95R
ST JOSEPH      MOSUNNY   74  70  87 SW6       29.91R
CHILLICOTHE      N/A     72  67  84 S5        29.92F
KIRKSVILLE     MOSUNNY   71  63  75 SW8       29.92F

$$
MOZ066>068-077>081-088>096-101>105-021400-
...SOUTHWEST MISSOURI...

CITY           SKY/WX    TMP DP  RH WIND       PRES   REMARKS
SPRINGFIELD    SUNNY     73  68  84 S6        30.00R
JOPLIN         SUNNY     75  65  70 S6        29.98S

$$
MOZ032>034-039>042-045>050-055>058-069>072-021400-
...CENTRAL MISSOURI...

CITY           SKY/WX    TMP DP  RH WIND       PRES   REMARKS
COLUMBIA       MOSUNNY   73  70  90 S5        29.96F
JEFFERSON CITY MOSUNNY   73  69  87 E3        29.96S
ROLLA          SUNNY     73  67  81 SW8       29.98S
SEDALIA        MOSUNNY   74  67  78 SW9       29.97R
WHITEMAN AFB   SUNNY     72  69  89 S6        29.95R
WARRENSBURG    SUNNY     72  66  83 S6        29.95R
OSAGE BEACH    MOSUNNY   73  66  78 CALM      29.99R

$$
MOZ051-052-059>065-021400-
...EAST CENTRAL MISSOURI...

CITY           SKY/WX    TMP DP  RH WIND       PRES   REMARKS
ST LOUIS INTL  MOSUNNY   79  67  66 SW6       29.97R
SPIRIT OF STL  MOSUNNY   77  68  73 CALM      29.95S
ST CHARLES     SUNNY     75  71  87 CALM      29.95R

$$
MOZ072>076-082>087-097>100-106>115-021400-
...SOUTH CENTRAL AND SOUTHEAST MISSOURI...

CITY           SKY/WX    TMP DP  RH WIND       PRES   REMARKS
CAPE GIRARDEAU MOSUNNY   75  72  90 CALM      29.98R
FARMINGTON     SUNNY     73  70  88 CALM      30.03S
POPLAR BLUFF   SUNNY     78  73  84 CALM      29.96S
WEST PLAINS    MOSUNNY   73  67  81 CALM      30.03R

$$


USA.gov is the U.S. government's official web portal to all federal, state and local government web resources and services.